Time,TemperatureF,DewpointF,PressureIn,WindDirection,WindDirectionDegrees,WindSpeedMPH,WindSpeedGustMPH,Humidity,HourlyPrecipIn,Conditions,Clouds,dailyrainin,SoftwareType,DateUTC
2013-03-27 00:10:00,34.9,29.0,29.90,West,268,0.0,1.0,80,0.00,,,0.00,weatherlink.com 1.10,2013-03-27 04:10:00,
2013-03-27 00:25:00,34.4,29.0,29.91,West,268,0.0,1.0,80,0.00,,,0.00,weatherlink.com 1.10,2013-03-27 04:25:00,
2013-03-27 00:42:00,34.3,29.0,29.91,West,268,0.0,3.0,80,0.00,,,0.00,weatherlink.com 1.10,2013-03-27 04:42:00,
2013-03-27 00:56:00,34.4,29.0,29.91,West,268,0.0,2.0,79,0.00,,,0.00,weatherlink.com 1.10,2013-03-27 04:56:00,
2013-03-27 01:11:00,34.1,28.0,29.91,West,268,0.0,0.0,79,0.00,,,0.00,weatherlink.com 1.10,2013-03-27 05:11:00,
2013-03-27 01:26:00,33.8,28.0,29.91,West,269,0.0,3.0,79,0.00,,,0.00,weatherlink.com 1.10,2013-03-27 05:26:00,
2013-03-27 01:41:00,33.8,28.0,29.91,WNW,294,0.0,4.0,78,0.00,,,0.00,weatherlink.com 1.10,2013-03-27 05:41:00,
2013-03-27 01:56:00,33.8,27.0,29.91,NW,306,0.0,3.0,77,0.00,,,0.00,weatherlink.com 1.10,2013-03-27 05:56:00,
2013-03-27 02:13:00,34.1,27.0,29.91,NNW,340,0.0,1.0,75,0.00,,,0.00,weatherlink.com 1.10,2013-03-27 06:13:00,
2013-03-27 02:28:00,34.1,27.0,29.91,NNW,341,0.0,2.0,74,0.00,,,0.00,weatherlink.com 1.10,2013-03-27 06:28:00,
2013-03-27 02:43:00,33.9,26.0,29.91,North,9,0.0,1.0,73,0.00,,,0.00,weatherlink.com 1.10,2013-03-27 06:43:00,
2013-03-27 02:57:00,33.0,26.0,29.91,North,9,0.0,0.0,74,0.00,,,0.00,weatherlink.com 1.10,2013-03-27 06:57:00,
2013-03-27 03:12:00,32.0,25.0,29.91,North,9,0.0,3.0,76,0.00,,,0.00,weatherlink.com 1.10,2013-03-27 07:12:00,
2013-03-27 03:27:00,31.6,25.0,29.90,North,9,0.0,0.0,76,0.00,,,0.00,weatherlink.com 1.10,2013-03-27 07:27:00,
2013-03-27 03:43:00,30.7,24.0,29.90,North,9,0.0,0.0,77,0.00,,,0.00,weatherlink.com 1.10,2013-03-27 07:43:00,
2013-03-27 03:58:00,29.5,24.0,29.90,North,9,0.0,2.0,80,0.00,,,0.00,weatherlink.com 1.10,2013-03-27 07:58:00,
2013-03-27 04:13:00,29.0,24.0,29.90,NNE,19,0.0,0.0,81,0.00,,,0.00,weatherlink.com 1.10,2013-03-27 08:13:00,
2013-03-27 04:28:00,28.3,24.0,29.90,NNE,19,0.0,0.0,82,0.00,,,0.00,weatherlink.com 1.10,2013-03-27 08:28:00,
2013-03-27 04:44:00,28.0,24.0,29.90,NNE,19,0.0,0.0,83,0.00,,,0.00,weatherlink.com 1.10,2013-03-27 08:44:00,
2013-03-27 04:59:00,28.2,24.0,29.90,NNE,19,0.0,0.0,83,0.00,,,0.00,weatherlink.com 1.10,2013-03-27 08:59:00,
2013-03-27 05:14:00,28.7,24.0,29.91,NNE,19,0.0,1.0,83,0.00,,,0.00,weatherlink.com 1.10,2013-03-27 09:14:00,
2013-03-27 05:29:00,29.1,24.0,29.91,NNE,19,0.0,0.0,82,0.00,,,0.00,weatherlink.com 1.10,2013-03-27 09:29:00,
2013-03-27 05:44:00,29.2,24.0,29.91,NNE,19,0.0,0.0,82,0.00,,,0.00,weatherlink.com 1.10,2013-03-27 09:44:00,
2013-03-27 05:59:00,29.4,25.0,29.91,NNE,19,0.0,0.0,83,0.00,,,0.00,weatherlink.com 1.10,2013-03-27 09:59:00,
2013-03-27 06:14:00,29.7,25.0,29.92,NNE,19,0.0,0.0,84,0.00,,,0.00,weatherlink.com 1.10,2013-03-27 10:14:00,
2013-03-27 06:30:00,30.4,26.0,29.92,NNE,19,0.0,2.0,85,0.00,,,0.00,weatherlink.com 1.10,2013-03-27 10:30:00,
2013-03-27 06:45:00,30.8,27.0,29.93,NNE,19,0.0,1.0,84,0.00,,,0.00,weatherlink.com 1.10,2013-03-27 10:45:00,
2013-03-27 07:00:00,31.2,27.0,29.93,NNE,19,0.0,2.0,84,0.00,,,0.00,weatherlink.com 1.10,2013-03-27 11:00:00,
2013-03-27 07:15:00,31.2,27.0,29.93,NNE,19,0.0,0.0,84,0.00,,,0.00,weatherlink.com 1.10,2013-03-27 11:15:00,
2013-03-27 07:30:00,31.1,27.0,29.94,North,360,0.0,2.0,84,0.00,,,0.00,weatherlink.com 1.10,2013-03-27 11:30:00,
2013-03-27 07:45:00,31.9,28.0,29.94,NNW,343,0.0,3.0,85,0.00,,,0.00,weatherlink.com 1.10,2013-03-27 11:45:00,
2013-03-27 08:01:00,32.9,29.0,29.95,WSW,255,0.0,5.0,84,0.00,,,0.00,weatherlink.com 1.10,2013-03-27 12:01:00,
2013-03-27 08:16:00,33.7,29.0,29.95,West,269,0.0,5.0,83,0.00,,,0.00,weatherlink.com 1.10,2013-03-27 12:16:00,
2013-03-27 08:31:00,34.7,30.0,29.95,SW,232,0.0,4.0,83,0.00,,,0.00,weatherlink.com 1.10,2013-03-27 12:31:00,
2013-03-27 08:45:00,36.0,31.0,29.95,West,278,0.0,4.0,81,0.00,,,0.00,weatherlink.com 1.10,2013-03-27 12:45:00,
2013-03-27 09:02:00,37.6,31.0,29.96,WSW,247,0.0,7.0,78,0.00,,,0.00,weatherlink.com 1.10,2013-03-27 13:02:00,
2013-03-27 09:17:00,38.7,32.0,29.96,WNW,284,0.0,6.0,76,0.00,,,0.00,weatherlink.com 1.10,2013-03-27 13:17:00,
2013-03-27 09:32:00,39.6,32.0,29.96,NNW,329,4.0,11.0,73,0.00,,,0.00,weatherlink.com 1.10,2013-03-27 13:32:00,
2013-03-27 09:47:00,40.9,31.0,29.95,West,270,5.0,12.0,69,0.00,,,0.00,weatherlink.com 1.10,2013-03-27 13:47:00,
2013-03-27 10:02:00,41.3,30.0,29.96,WNW,287,8.0,14.0,64,0.00,,,0.00,weatherlink.com 1.10,2013-03-27 14:02:00,
2013-03-27 10:16:00,42.4,30.0,29.95,WNW,298,4.0,9.0,63,0.00,,,0.00,weatherlink.com 1.10,2013-03-27 14:16:00,
2013-03-27 10:31:00,43.3,30.0,29.95,North,351,8.0,11.0,60,0.00,,,0.00,weatherlink.com 1.10,2013-03-27 14:31:00,
2013-03-27 10:46:00,44.3,29.0,29.95,NW,314,1.0,11.0,56,0.00,,,0.00,weatherlink.com 1.10,2013-03-27 14:46:00,
2013-03-27 11:03:00,45.0,28.0,29.95,West,269,5.0,11.0,52,0.00,,,0.00,weatherlink.com 1.10,2013-03-27 15:03:00,
2013-03-27 11:18:00,45.2,29.0,29.95,West,278,8.0,12.0,53,0.00,,,0.00,weatherlink.com 1.10,2013-03-27 15:18:00,
2013-03-27 11:33:00,45.7,28.0,29.94,West,276,2.0,11.0,51,0.00,,,0.00,weatherlink.com 1.10,2013-03-27 15:33:00,
2013-03-27 11:48:00,46.1,28.0,29.94,NW,310,3.0,19.0,49,0.00,,,0.00,weatherlink.com 1.10,2013-03-27 15:48:00,
2013-03-27 12:03:00,47.6,29.0,29.94,NNW,333,9.0,18.0,48,0.00,,,0.00,weatherlink.com 1.10,2013-03-27 16:03:00,
2013-03-27 12:18:00,46.2,26.0,29.93,WNW,292,11.0,12.0,46,0.00,,,0.00,weatherlink.com 1.10,2013-03-27 16:18:00,
2013-03-27 12:33:00,46.7,27.0,29.93,WNW,293,10.0,17.0,47,0.00,,,0.00,weatherlink.com 1.10,2013-03-27 16:33:00,
2013-03-27 12:48:00,47.2,26.0,29.93,WSW,244,5.0,9.0,44,0.00,,,0.00,weatherlink.com 1.10,2013-03-27 16:48:00,
2013-03-27 13:03:00,47.6,27.0,29.93,NNW,339,7.0,11.0,45,0.00,,,0.00,weatherlink.com 1.10,2013-03-27 17:03:00,
2013-03-27 13:18:00,47.1,26.0,29.92,NNW,341,5.0,9.0,44,0.00,,,0.00,weatherlink.com 1.10,2013-03-27 17:18:00,
2013-03-27 13:34:00,47.7,25.0,29.92,NW,308,2.0,12.0,42,0.00,,,0.00,weatherlink.com 1.10,2013-03-27 17:34:00,
2013-03-27 13:49:00,48.8,27.0,29.91,WSW,257,5.0,11.0,43,0.00,,,0.00,weatherlink.com 1.10,2013-03-27 17:49:00,
2013-03-27 14:04:00,48.8,25.0,29.91,NW,318,5.0,17.0,40,0.00,,,0.00,weatherlink.com 1.10,2013-03-27 18:04:00,
2013-03-27 14:19:00,47.2,24.0,29.91,WNW,282,6.0,11.0,41,0.00,,,0.00,weatherlink.com 1.10,2013-03-27 18:19:00,
2013-03-27 14:34:00,48.0,26.0,29.90,WNW,298,7.0,11.0,43,0.00,,,0.00,weatherlink.com 1.10,2013-03-27 18:34:00,
2013-03-27 14:49:00,47.3,24.0,29.90,West,278,2.0,13.0,41,0.00,,,0.00,weatherlink.com 1.10,2013-03-27 18:49:00,
2013-03-27 15:04:00,47.8,25.0,29.90,NNW,337,3.0,7.0,41,0.00,,,0.00,weatherlink.com 1.10,2013-03-27 19:04:00,
2013-03-27 15:20:00,47.7,24.0,29.90,North,349,9.0,14.0,39,0.00,,,0.00,weatherlink.com 1.10,2013-03-27 19:20:00,
2013-03-27 15:35:00,49.1,24.0,29.90,NW,311,7.0,13.0,37,0.00,,,0.00,weatherlink.com 1.10,2013-03-27 19:35:00,
2013-03-27 15:50:00,50.9,26.0,29.90,NW,324,8.0,16.0,38,0.00,,,0.00,weatherlink.com 1.10,2013-03-27 19:50:00,
2013-03-27 16:05:00,49.3,26.0,29.91,NNW,340,5.0,15.0,41,0.00,,,0.00,weatherlink.com 1.10,2013-03-27 20:05:00,
2013-03-27 16:36:00,49.3,26.0,29.91,NNW,329,8.0,15.0,40,0.00,,,0.00,weatherlink.com 1.10,2013-03-27 20:36:00,
2013-03-27 16:51:00,48.7,26.0,29.92,NNW,336,13.0,14.0,42,0.00,,,0.00,weatherlink.com 1.10,2013-03-27 20:51:00,
2013-03-27 17:05:00,47.8,31.0,29.93,WNW,296,5.0,17.0,52,0.00,,,0.00,weatherlink.com 1.10,2013-03-27 21:05:00,
2013-03-27 17:22:00,46.3,30.0,29.94,NNW,331,11.0,17.0,54,0.00,,,0.00,weatherlink.com 1.10,2013-03-27 21:22:00,
2013-03-27 17:36:00,45.8,32.0,29.94,NW,304,4.0,18.0,58,0.00,,,0.00,weatherlink.com 1.10,2013-03-27 21:36:00,
2013-03-27 17:51:00,45.9,31.0,29.95,NNW,330,5.0,13.0,57,0.00,,,0.00,weatherlink.com 1.10,2013-03-27 21:51:00,
2013-03-27 18:22:00,42.2,31.0,29.96,NW,320,4.0,12.0,65,0.00,,,0.00,weatherlink.com 1.10,2013-03-27 22:22:00,
2013-03-27 18:36:00,41.7,31.0,29.96,NNW,342,0.0,3.0,65,0.00,,,0.00,weatherlink.com 1.10,2013-03-27 22:36:00,
2013-03-27 18:53:00,41.5,31.0,29.96,NNW,342,0.0,1.0,66,0.00,,,0.00,weatherlink.com 1.10,2013-03-27 22:53:00,
2013-03-27 19:08:00,41.4,31.0,29.97,WNW,286,2.0,7.0,66,0.00,,,0.00,weatherlink.com 1.10,2013-03-27 23:08:00,
2013-03-27 19:23:00,41.4,32.0,29.97,SW,217,0.0,11.0,68,0.00,,,0.00,weatherlink.com 1.10,2013-03-27 23:23:00,
2013-03-27 19:37:00,40.8,31.0,29.97,WNW,296,0.0,8.0,69,0.00,,,0.00,weatherlink.com 1.10,2013-03-27 23:37:00,
2013-03-27 19:52:00,40.4,31.0,29.98,NW,305,4.0,6.0,68,0.00,,,0.00,weatherlink.com 1.10,2013-03-27 23:52:00,
2013-03-27 20:07:00,40.2,30.0,29.98,NW,311,3.0,8.0,68,0.00,,,0.00,weatherlink.com 1.10,2013-03-28 00:07:00,
2013-03-27 20:24:00,40.0,30.0,29.99,NW,319,0.0,4.0,68,0.00,,,0.00,weatherlink.com 1.10,2013-03-28 00:24:00,
2013-03-27 20:38:00,39.6,30.0,29.99,West,275,0.0,4.0,69,0.00,,,0.00,weatherlink.com 1.10,2013-03-28 00:38:00,
2013-03-27 20:53:00,39.3,30.0,30.00,WNW,299,0.0,7.0,69,0.00,,,0.00,weatherlink.com 1.10,2013-03-28 00:53:00,
2013-03-27 21:08:00,39.1,30.0,30.00,WNW,296,4.0,4.0,70,0.00,,,0.00,weatherlink.com 1.10,2013-03-28 01:08:00,
2013-03-27 21:23:00,38.9,30.0,30.02,NW,313,0.0,7.0,71,0.00,,,0.00,weatherlink.com 1.10,2013-03-28 01:23:00,
2013-03-27 21:39:00,38.8,31.0,30.02,NW,325,6.0,10.0,74,0.00,,,0.00,weatherlink.com 1.10,2013-03-28 01:39:00,
2013-03-27 21:54:00,38.6,32.0,30.02,NW,319,0.0,6.0,76,0.00,,,0.00,weatherlink.com 1.10,2013-03-28 01:54:00,
2013-03-27 22:09:00,38.4,32.0,30.02,NNW,329,3.0,6.0,77,0.00,,,0.00,weatherlink.com 1.10,2013-03-28 02:09:00,
2013-03-27 22:24:00,38.2,32.0,30.02,WNW,292,0.0,6.0,77,0.00,,,0.00,weatherlink.com 1.10,2013-03-28 02:24:00,
2013-03-27 22:39:00,38.0,31.0,30.02,WNW,300,0.0,4.0,77,0.00,,,0.00,weatherlink.com 1.10,2013-03-28 02:39:00,
2013-03-27 22:55:00,37.6,31.0,30.02,WNW,300,0.0,3.0,77,0.00,,,0.00,weatherlink.com 1.10,2013-03-28 02:55:00,
2013-03-27 23:10:00,37.3,31.0,30.02,WNW,300,0.0,3.0,78,0.00,,,0.00,weatherlink.com 1.10,2013-03-28 03:10:00,
2013-03-27 23:25:00,37.0,31.0,30.02,WNW,300,0.0,3.0,78,0.00,,,0.00,weatherlink.com 1.10,2013-03-28 03:25:00,
2013-03-27 23:40:00,36.5,31.0,30.02,WNW,299,0.0,2.0,79,0.00,,,0.00,weatherlink.com 1.10,2013-03-28 03:40:00,
2013-03-27 23:55:00,36.2,30.0,30.02,WNW,299,0.0,1.0,79,0.00,,,0.00,weatherlink.com 1.10,2013-03-28 03:55:00,